Location: Miles
(41.4492°N, 81.6087°W)
Time: 14:58:58
(UTC+00:00)

Courier 1B Rocket - All Passes

Search period start: 13 September 2024 00:00
Search period end: 23 September 2024 00:00
Orbit: 920 x 1201 km, 28.2° (Epoch: 12 September)

Date Brightness Start Highest point End Pass type
(mag) Time Alt. Az. Time Alt. Az. Time Alt. Az.
13 Sep - 00:28:00 10° WSW 00:34:07 29° S 00:40:31 10° SE visible
13 Sep - 02:21:29 10° WSW 02:26:55 21° SSW 02:32:28 10° SSE visible
13 Sep - 21:35:34 10° SSW 21:40:25 20° SSE 21:45:29 10° ESE daylight
13 Sep - 23:27:07 10° SW 23:33:03 29° S 23:39:17 10° ESE daylight
14 Sep - 01:20:05 10° WSW 01:25:51 25° SSW 01:31:49 10° SE visible
14 Sep - 03:15:23 10° SW 03:18:29 13° SSW 03:21:36 10° S visible
14 Sep - 20:35:43 10° SSW 20:39:32 16° SSE 20:43:30 10° ESE daylight
14 Sep - 22:26:24 10° SW 22:32:01 27° S 22:37:57 10° ESE daylight
15 Sep - 00:18:56 10° WSW 00:24:46 27° S 00:30:54 10° SE visible
15 Sep - 02:13:01 10° WSW 02:17:29 17° SSW 02:22:02 10° SSE visible
15 Sep - 19:36:53 10° S 19:38:43 11° SSE 19:40:35 10° SE daylight
15 Sep - 21:25:54 10° SW 21:31:03 23° SSE 21:36:29 10° ESE daylight
15 Sep - 23:17:56 10° WSW 23:23:44 28° S 23:29:50 10° SE daylight
16 Sep - 01:11:21 10° WSW 01:16:28 20° SSW 01:21:45 10° SSE visible
16 Sep - 20:25:40 10° SSW 20:30:10 19° SSE 20:34:51 10° ESE daylight
16 Sep - 22:17:08 10° SW 22:22:43 27° S 22:28:37 10° ESE daylight
17 Sep - 00:10:02 10° WSW 00:15:25 23° SSW 00:21:05 10° SE visible
17 Sep - 02:05:26 10° SW 02:08:02 12° SSW 02:10:40 10° S visible
17 Sep - 19:25:52 10° SSW 19:29:19 15° SSE 19:32:53 10° SE daylight
17 Sep - 21:16:28 10° SW 21:21:45 25° S 21:27:18 10° ESE daylight
17 Sep - 23:08:56 10° WSW 23:14:25 25° S 23:20:12 10° SE daylight
18 Sep - 01:03:01 10° SW 01:07:04 16° SSW 01:11:12 10° SSE visible
18 Sep - 18:27:19 10° SSE 18:28:32 11° SSE 18:29:47 10° SE daylight
18 Sep - 20:16:00 10° SW 20:20:50 22° SSE 20:25:54 10° ESE daylight
18 Sep - 22:08:00 10° WSW 22:13:26 26° S 22:19:09 10° SE daylight
19 Sep - 00:01:23 10° WSW 00:06:05 19° SSW 00:10:58 10° SSE visible
19 Sep - 19:15:47 10° SSW 19:19:59 18° SSE 19:24:20 10° ESE daylight
19 Sep - 21:07:13 10° SW 21:12:29 26° S 21:18:00 10° SE daylight
19 Sep - 23:00:05 10° WSW 23:05:07 22° SSW 23:10:22 10° SE daylight
20 Sep - 00:55:55 10° SW 00:57:39 11° SSW 00:59:23 10° S visible
20 Sep - 18:15:58 10° S 18:19:11 14° SSE 18:22:27 10° SE daylight
20 Sep - 20:06:34 10° SW 20:11:34 24° S 20:16:46 10° ESE daylight
20 Sep - 21:59:02 10° WSW 22:04:09 24° S 22:09:32 10° SE daylight
20 Sep - 23:53:13 10° SW 23:56:43 14° SSW 00:00:20 10° S visible
21 Sep - 17:17:34 10° SSE 17:18:25 10° SSE 17:19:16 10° SSE daylight
21 Sep - 19:06:05 10° SW 19:10:42 21° SSE 19:15:27 10° ESE daylight
21 Sep - 20:58:07 10° SW 21:03:13 25° S 21:08:34 10° SE daylight
21 Sep - 22:51:32 10° WSW 22:55:47 18° SSW 23:00:13 10° SSE daylight
22 Sep - 18:05:50 10° SSW 18:09:53 18° SSE 18:13:59 10° ESE daylight
22 Sep - 19:57:20 10° SW 20:02:20 25° S 20:07:31 10° SE daylight
22 Sep - 21:50:15 10° WSW 21:54:53 21° SSW 21:59:43 10° SSE daylight
